Tracking 20093 objects as of 14-Dec-2019
HD Live streaming from Space Station
objects crossing your sky now

FENGYUN 1C DEB

Track FENGYUN 1C DEB now!
10-day predictions


NORAD ID: 30815
Int'l Code: 1999-025AUZ
Perigee: 803.3 km
Apogee: 807.3 km
Inclination: 99.3 °
Period: 100.8 minutes
Semi major axis: 7176 km
RCS: 0.0091 m2 (small)
Launch date: May 10, 1999
Source: People's Republic of China (PRC)
Launch site: Taiyaun Space Center, China (TSC)

Note: This is SATELLITE DEBRIS
aabbcc
Your satellite tracking list
Your tracking list is empty




NASA's NSSDC Master Catalog

Two Line Element Set (TLE):
1 30815U 99025AUZ 19348.75911294  .00000861  00000-0  36650-3 0  9993
2 30815  99.3150 286.5399 0002774 339.8544  48.3143 14.28082863662979
Source of the keplerian elements: AFSPC